Location: Limoges
(45.8354°N, 1.2645°E)
Time: 11:55:53
(UTC+02:00)

ISS - Visible Passes

Search period start: 16 June 2025 00:00
Search period end: 26 June 2025 00:00
Orbit: 415 x 417 km, 51.6° (Epoch: 15 June)

Date Brightness Start Highest point End Pass type
(mag) Time Alt. Az. Time Alt. Az. Time Alt. Az.
21 Jun -1.8 05:20:01 10° S 05:22:35 21° SE 05:25:12 10° E visible
22 Jun -1.3 04:32:30 10° SSE 04:34:06 13° SE 04:35:44 10° ESE visible
23 Jun -3.3 05:18:26 10° SW 05:21:41 49° SE 05:24:57 10° ENE visible
24 Jun -2.6 04:31:23 19° S 04:33:04 30° SE 04:36:04 10° ENE visible
25 Jun -2.0 03:44:22 19° SE 03:44:29 19° SE 03:46:57 10° E visible
25 Jun -3.6 05:17:33 10° WSW 05:20:53 74° NNW 05:24:15 10° ENE visible
